time_stamp(utc),avg(mph),gust(mph),direction(deg),12m_air_temp(f),sonic_u(cm/s),sonic_v(cm/s),sonic_w(cm/s),pressure,2m_air_temp(f),pyranometer(W/m^2)
"2021-05-16 00:02:39+00",9.9,12.9,,61,-92,-403,-2,1023.31,60.6,0
"2021-05-16 00:07:39+00",9.9,11.9,,61,-193,-397,12,1023.41,60.3,0
"2021-05-16 00:12:39+00",10.2,11.2,,60.9,-206,-411,4,1023.41,60.1,0
"2021-05-16 00:17:39+00",11.3,13.3,,60.8,-214,-461,-1,1023.5,59.8,0
"2021-05-16 00:22:39+00",11.5,13.5,,60.8,-191,-470,1,1023.53,59.7,0
"2021-05-16 00:27:39+00",9.3,11.3,,60.6,-93,-388,-1,1023.55,59.6,0
"2021-05-16 00:32:39+00",10.9,14.9,,60.6,-91,-447,6,1023.63,59.6,0
"2021-05-16 00:37:39+00",10.8,12.8,,60.3,-77,-448,-12,1023.61,59.6,0
"2021-05-16 00:42:39+00",10.3,13.3,,60.1,-101,-437,-1,1023.56,59.5,0
"2021-05-16 00:47:39+00",9.8,12.8,,59.9,-93,-415,-1,1023.67,59.2,0
"2021-05-16 00:52:39+00",10.6,12.6,,59.6,-87,-450,-46,1023.7,59,0
"2021-05-16 00:57:39+00",9.2,11.2,,59.4,-88,-379,-53,1023.73,58.8,0
"2021-05-16 01:02:39+00",10.2,12.2,,59.2,-129,-417,-56,1023.8,58.5,0
"2021-05-16 01:07:39+00",9.0,11.0,,59.1,-109,-355,-64,1023.87,58.3,0
"2021-05-16 01:12:39+00",10.9,13.9,,59.2,-133,-443,-69,1023.83,58.3,0
"2021-05-16 01:17:39+00",10.7,13.7,,59.1,-182,-413,-76,1023.91,58.2,0
"2021-05-16 01:22:39+00",10.5,11.5,,59.1,-129,-430,-67,1023.95,58.1,0
"2021-05-16 01:27:39+00",10.2,12.2,,59,-128,-417,-59,1023.94,58.1,0
"2021-05-16 01:32:39+00",9.8,10.8,,59,-130,-399,-62,1023.95,58,0
"2021-05-16 01:37:39+00",9.9,11.9,,58.9,-130,-404,-51,1023.98,57.8,0
"2021-05-16 01:42:39+00",9.4,10.4,,59,-150,-373,-54,1024.01,57.7,0
"2021-05-16 01:47:39+00",10.3,11.3,,59.1,-186,-407,-54,1024.04,57.6,0
"2021-05-16 01:52:39+00",8.3,10.3,,59.2,-189,-355,-42,1023.94,57.7,0
"2021-05-16 01:57:39+00",9.1,11.1,,59.2,-176,-372,-59,1023.92,57.6,0
"2021-05-16 02:02:39+00",7.9,8.9,,59.2,-174,-325,-48,1023.93,57.6,0
"2021-05-16 02:07:39+00",6.1,7.1,,59.2,-230,-271,-45,1023.94,57.5,0
"2021-05-16 02:12:39+00",6.2,7.2,,59.3,-243,-294,-48,1023.95,57.5,0
"2021-05-16 02:17:39+00",7.1,9.1,,59.4,-249,-321,-44,1024,57.5,0
"2021-05-16 02:22:39+00",7.1,8.1,,59.4,-278,-317,-40,1024.11,57.5,0
"2021-05-16 02:27:39+00",7.1,8.1,,59.4,-272,-301,-53,1024.08,57.6,0
"2021-05-16 02:32:39+00",6.8,7.8,,59.6,-265,-313,-51,1024.07,57.7,0
"2021-05-16 02:37:39+00",7.1,8.1,,59.5,-294,-303,-56,1024.14,57.6,0
"2021-05-16 02:42:39+00",7.0,8.0,,59.5,-285,-225,-49,1024.17,57.6,0
"2021-05-16 02:47:39+00",6.6,7.6,,59.1,-248,-140,-48,1024.22,57.4,0
"2021-05-16 02:52:39+00",8.1,9.1,,59,-335,-158,-64,1024.22,57.2,0
"2021-05-16 02:57:39+00",7.8,8.8,,59.1,-332,-145,-60,1024.19,57,0
"2021-05-16 03:02:39+00",7.5,8.5,,59,-282,-180,-46,1024.16,56.9,0
"2021-05-16 03:07:39+00",7.6,8.6,,59,-288,-185,-48,1024.16,56.8,0
"2021-05-16 03:12:39+00",8.6,10.6,,59,-345,-245,-55,1024.19,56.8,0
"2021-05-16 03:17:39+00",7.1,10.1,,59.2,-299,-232,-54,1024.18,56.9,0
"2021-05-16 03:22:39+00",7.1,8.1,,59,-283,-190,-58,1024.22,56.9,0
"2021-05-16 03:27:39+00",7.5,8.5,,59,-285,-150,-64,1024.29,56.9,0
"2021-05-16 03:32:39+00",6.1,7.1,,58.9,-255,-84,-49,1024.27,56.8,0
"2021-05-16 03:37:39+00",5.9,6.9,,58.7,-266,-98,-50,1024.24,56.6,0
"2021-05-16 03:42:39+00",6.2,7.2,,58.7,-257,-123,-54,1024.32,56.4,0
"2021-05-16 03:47:39+00",6.2,7.2,,58.5,-247,-127,-56,1024.22,56,0
"2021-05-16 03:52:39+00",5.8,6.8,,58.4,-231,-148,-60,1024.23,55.8,0
"2021-05-16 03:57:39+00",6.0,7.0,,58.2,-236,-134,-56,1024.19,55.6,0
"2021-05-16 04:02:39+00",5.4,6.4,,58.1,-238,-103,-43,1024.09,55.5,0
"2021-05-16 04:07:39+00",4.4,5.4,,57.8,-198,-72,-30,1024.04,55.3,0
"2021-05-16 04:12:39+00",4.3,4.3,,57.7,-193,-66,-28,1024.05,55.1,0
"2021-05-16 04:17:39+00",4.0,4.0,,57.6,-177,-64,-25,1024.12,55,0
"2021-05-16 04:22:39+00",4.6,5.6,,57.6,-201,-73,-28,1024.02,54.8,0
"2021-05-16 04:27:39+00",4.7,4.7,,57.6,-192,-98,-42,1024.01,54.8,0
"2021-05-16 04:32:39+00",4.1,5.1,,57.7,-171,-141,-39,1023.96,54.6,0
"2021-05-16 04:37:39+00",4.1,5.1,,57.8,-163,-156,-44,1023.95,54.5,0
"2021-05-16 04:42:39+00",5.3,5.3,,57.8,-221,-152,-53,1023.96,54.4,0
"2021-05-16 04:47:39+00",4.5,5.5,,57.8,-182,-120,-43,1023.9,54.2,0
"2021-05-16 04:52:39+00",4.0,5.0,,57.6,-158,-102,-42,1023.91,54,0
"2021-05-16 04:57:39+00",3.7,4.7,,57.6,-139,-142,-40,1023.9,53.9,0
"2021-05-16 05:02:39+00",3.9,3.9,,57.7,-138,-149,-44,1023.92,54.2,0
"2021-05-16 05:07:39+00",3.8,3.8,,57.7,-154,-142,-41,1023.92,54.5,0
"2021-05-16 05:12:39+00",4.9,4.9,,57.7,-95,-173,-43,1023.88,54.8,0
"2021-05-16 05:17:39+00",5.3,5.3,,57.6,-69,-197,-45,1023.76,55.1,0
"2021-05-16 05:22:39+00",5.5,6.5,,57.6,-52,-211,-37,1023.74,55.4,0
"2021-05-16 05:27:39+00",5.5,6.5,,57.5,-101,-196,-44,1023.65,55.4,0
"2021-05-16 05:32:39+00",4.3,4.3,,57.5,-152,-172,-46,1023.7,55.2,0
"2021-05-16 05:37:39+00",4.6,5.6,,57.6,-137,-173,-45,1023.81,54.7,0
"2021-05-16 05:42:39+00",4.3,4.3,,57.6,-201,-143,-52,1023.84,54.5,0
"2021-05-16 05:47:39+00",5.9,6.9,,57.6,-242,-76,-38,1023.85,54.3,0
"2021-05-16 05:52:39+00",7.0,7.0,,57.8,-286,-78,-47,1023.94,54.2,0
"2021-05-16 05:57:39+00",8.3,9.3,,57.8,-315,-75,-63,1023.96,54.1,0
"2021-05-16 06:02:39+00",9.2,10.2,,57.3,-370,-65,-58,1023.9,54,0
"2021-05-16 06:07:39+00",8.7,9.7,,57.1,-344,-41,-65,1023.98,54.1,0
"2021-05-16 06:12:39+00",8.5,8.5,,56.9,-365,-4,-49,1024.08,54.1,0
"2021-05-16 06:17:39+00",8.0,8.0,,56.9,-344,14,-49,1024.1,54.2,0
"2021-05-16 06:22:39+00",7.5,7.5,,56.8,-310,-20,-48,1024.04,54.2,0
"2021-05-16 06:27:39+00",6.9,7.9,,56.6,-272,-81,-34,1024.04,54.1,0
"2021-05-16 06:32:39+00",6.4,7.4,,56.5,-225,-76,-50,1023.89,53.9,0
"2021-05-16 06:37:39+00",6.9,7.9,,56.4,-211,-144,-66,1023.89,53.6,0
"2021-05-16 06:42:39+00",7.9,8.9,,56.6,-276,-183,-39,1023.92,53.4,0
"2021-05-16 06:47:39+00",7.1,7.1,,56.7,-224,-148,-64,1023.83,53.2,0
"2021-05-16 06:52:39+00",6.0,7.0,,56.5,-191,-129,-56,1023.76,53.1,0
"2021-05-16 06:57:39+00",6.5,7.5,,56.3,-265,-103,-42,1023.87,53,0
"2021-05-16 07:02:39+00",7.6,7.6,,56.4,-272,-77,-57,1023.91,52.9,0
"2021-05-16 07:07:39+00",8.1,8.1,,56.4,-280,-97,-65,1024.07,52.8,0
"2021-05-16 07:12:39+00",7.5,7.5,,56.3,-272,-57,-62,1024.06,52.8,0
"2021-05-16 07:17:39+00",7.2,8.2,,56.2,-276,-37,-50,1023.96,53,0
"2021-05-16 07:22:39+00",7.6,7.6,,56.1,-304,-42,-43,1024.02,53,0
"2021-05-16 07:27:39+00",7.7,7.7,,56.2,-310,33,-52,1024.03,53.1,0
"2021-05-16 07:32:39+00",7.8,8.8,,55.9,-302,55,-60,1024.07,53.1,0
"2021-05-16 07:37:39+00",7.0,7.0,,55.8,-278,46,-44,1024.06,53.5,0
"2021-05-16 07:42:39+00",6.5,7.5,,55.4,-235,69,-54,1023.99,53.6,0
"2021-05-16 07:47:39+00",5.7,6.7,,55.2,-208,49,-46,1023.93,53.4,0
"2021-05-16 07:52:39+00",5.8,6.8,,54.8,-209,64,-45,1023.96,53.2,0
"2021-05-16 07:57:39+00",5.3,6.3,,54.6,-190,45,-38,1023.91,52.9,0
"2021-05-16 08:02:39+00",6.4,7.4,,54.6,-237,59,-48,1023.99,52.9,0
"2021-05-16 08:07:39+00",6.5,7.5,,54.6,-272,24,-34,1024.01,52.9,0
"2021-05-16 08:12:39+00",7.8,8.8,,54.5,-332,44,-40,1024.1,53,0
"2021-05-16 08:17:39+00",7.1,8.1,,54.6,-296,16,-34,1024.13,53.1,0
"2021-05-16 08:22:39+00",6.7,6.7,,54.6,-272,0,-36,1024.15,53.1,0
"2021-05-16 08:27:39+00",6.9,7.9,,54.5,-290,17,-37,1024.17,52.9,0
"2021-05-16 08:32:39+00",6.8,7.8,,54.3,-282,3,-38,1024.15,52.8,0
"2021-05-16 08:37:39+00",6.2,6.2,,54,-247,-81,-31,1024.25,52.6,0
"2021-05-16 08:42:39+00",5.7,5.7,,53.8,-181,-100,-50,1024.22,52.3,0
"2021-05-16 08:47:39+00",4.9,4.9,,53.8,-186,-15,-31,1024.21,52,0
"2021-05-16 08:52:39+00",5.0,5.0,,53.8,-216,-20,9,1024.26,51.9,0
"2021-05-16 08:57:39+00",5.0,5.0,,53.9,-207,-58,10,1024.23,52,0
"2021-05-16 09:02:39+00",5.7,5.7,,53.8,-240,-55,7,1024.21,51.8,0
"2021-05-16 09:07:39+00",5.6,6.6,,53.7,-232,-66,4,1024.19,51.6,0
"2021-05-16 09:12:39+00",5.8,5.8,,53.9,-256,-18,10,1024.19,51.6,0
"2021-05-16 09:17:39+00",6.0,7.0,,54,-259,-26,8,1024.33,51.6,0
"2021-05-16 09:22:39+00",5.3,6.3,,54.2,-227,48,10,1024.3,51.7,0
"2021-05-16 09:27:39+00",5.0,6.0,,54.3,-213,65,5,1024.33,51.7,0
"2021-05-16 09:32:39+00",5.8,5.8,,52.8,-64,243,-4,1024.32,51.3,0
"2021-05-16 09:37:39+00",6.1,6.1,,51.9,-113,234,3,1024.44,50.7,0
"2021-05-16 09:42:39+00",5.3,5.3,,51.2,-66,220,-2,1024.64,50,0
"2021-05-16 09:47:39+00",7.4,8.4,,50.4,-74,317,-6,1024.67,49.3,0
"2021-05-16 09:52:39+00",7.3,7.3,,50.2,-87,307,-2,1024.69,48.7,0
"2021-05-16 09:57:39+00",5.6,6.6,,50.5,-93,221,-1,1024.76,48.3,0
"2021-05-16 10:02:39+00",5.8,5.8,,50.6,-60,241,-3,1024.85,48,0
"2021-05-16 10:07:39+00",5.9,5.9,,50.7,-79,243,-2,1024.95,47.9,0
"2021-05-16 10:12:39+00",5.3,6.3,,50.9,-107,195,-2,1024.98,47.9,0
"2021-05-16 10:17:39+00",6.0,7.0,,51.1,-84,244,1,1024.98,48.2,0
"2021-05-16 10:22:39+00",5.3,5.3,,51.4,-60,219,1,1025.06,48.6,0
"2021-05-16 10:27:39+00",4.5,4.5,,51.5,-45,188,-4,1024.98,49.2,0
"2021-05-16 10:32:39+00",3.5,3.5,,51.8,25,133,-1,1025.03,50.2,0
"2021-05-16 10:37:39+00",2.2,3.2,,52.2,49,65,5,1025.04,50.9,0
"2021-05-16 10:42:39+00",2.3,3.3,,52.8,39,73,5,1025.03,51.7,0
"2021-05-16 10:47:39+00",2.9,2.9,,52.9,57,89,1,1025.08,52.3,0
"2021-05-16 10:52:39+00",2.7,3.7,,53,98,42,4,1025.13,52.8,0
"2021-05-16 10:57:39+00",2.6,3.6,,53.1,91,-25,-12,1025.2,53.3,0
"2021-05-16 11:02:39+00",1.1,1.1,,53.5,31,12,-13,1025.13,53.7,0
"2021-05-16 11:07:39+00",0.6,0.6,,54,9,8,-7,1025.11,54.2,0
"2021-05-16 11:12:39+00",2.2,2.2,,54.3,55,-58,-5,1025.12,54.5,0
"2021-05-16 11:17:39+00",1.9,2.9,,54.2,28,-56,0,1025.21,54.4,0
"2021-05-16 11:22:39+00",1.2,2.2,,54.5,32,-18,-2,1025.33,54.7,0
"2021-05-16 11:27:39+00",2.0,2.0,,54.7,15,-76,6,1025.19,54.8,0
"2021-05-16 11:32:39+00",1.9,2.9,,54.8,13,-63,10,1025.29,55,0
"2021-05-16 11:37:39+00",2.2,3.2,,54.9,-18,-77,-10,1025.27,55.1,0
"2021-05-16 11:42:39+00",1.7,2.7,,55,-18,-54,-5,1025.37,55.3,0
"2021-05-16 11:47:39+00",2.1,2.1,,55.3,-49,-58,-14,1025.35,55.7,0
"2021-05-16 11:52:39+00",2.6,2.6,,55.6,-94,-22,-1,1025.38,56.3,0
"2021-05-16 11:57:39+00",1.6,2.6,,56,-50,-33,11,1025.34,56.9,0
"2021-05-16 12:02:39+00",1.6,1.6,,56.4,-56,-7,-10,1025.34,57.6,0
"2021-05-16 12:07:39+00",2.8,3.8,,56.7,-113,25,-10,1025.27,58.4,0
"2021-05-16 12:12:39+00",3.5,5.5,,57,-143,60,-4,1025.24,59,0
"2021-05-16 12:17:39+00",3.5,4.5,,57.2,-146,-9,-10,1025.37,59.7,0
"2021-05-16 12:22:39+00",4.1,5.1,,57.4,-162,12,22,1025.34,60.4,0
"2021-05-16 12:27:39+00",5.0,6.0,,57.6,-211,30,-10,1025.39,61,0
"2021-05-16 12:32:39+00",5.0,6.0,,57.8,-213,27,-2,1025.36,61.7,0
"2021-05-16 12:37:39+00",4.1,5.1,,58.1,-168,8,16,1025.27,62.3,0
"2021-05-16 12:42:39+00",3.8,4.8,,58.5,-165,16,8,1025.28,63.1,0
"2021-05-16 12:47:39+00",4.9,5.9,,58.8,-213,10,14,1025.39,63.6,0
"2021-05-16 12:52:39+00",4.7,5.7,,59,-196,24,1,1025.47,64.1,0
"2021-05-16 12:57:39+00",5.7,6.7,,59.1,-252,56,15,1025.58,64.5,0
"2021-05-16 13:02:39+00",6.3,7.3,,59.2,-252,-92,-1,1025.55,64.9,0
"2021-05-16 13:07:39+00",6.0,7.0,,59.5,-250,37,37,1025.55,65.5,0
"2021-05-16 13:12:39+00",3.7,4.7,,59.6,-144,0,-6,1025.6,66.2,0
"2021-05-16 13:17:39+00",5.0,6.0,,59.9,-202,-40,29,1025.67,66.5,0
"2021-05-16 13:22:39+00",3.8,4.8,,60.1,-165,48,8,1025.58,66.5,0
"2021-05-16 13:27:39+00",4.1,5.1,,60.3,-170,-45,4,1025.64,66.7,0
"2021-05-16 13:32:39+00",5.3,6.3,,60.7,-165,-147,1,1025.55,66.4,0
"2021-05-16 13:37:39+00",2.9,3.9,,60.9,-105,-17,-10,1025.56,66.4,0
"2021-05-16 13:42:39+00",5.7,6.7,,61.4,-200,-136,-27,1025.57,66.7,0
"2021-05-16 13:47:39+00",5.0,7.0,,61.7,-134,-175,2,1025.5,67,0
"2021-05-16 13:52:39+00",3.8,4.8,,62.2,-43,-147,11,1025.62,66.2,0
"2021-05-16 13:57:39+00",5.0,6.0,,62.7,-91,-195,0,1025.56,66.3,0
"2021-05-16 14:02:39+00",4.1,5.1,,62.6,-136,-99,7,1025.54,66.3,0
"2021-05-16 14:07:39+00",3.3,4.3,,62.8,-75,-114,10,1025.62,66.9,0
"2021-05-16 14:12:39+00",7.4,9.4,,63,189,-270,17,1025.47,66.2,0
"2021-05-16 14:17:39+00",6.5,7.5,,61.6,68,-252,1,1025.59,65,0
"2021-05-16 14:22:39+00",5.3,6.3,,61.7,129,-186,-8,1025.59,64.4,0
"2021-05-16 14:27:39+00",6.8,7.8,,61.6,135,-248,-18,1025.6,64.1,0
"2021-05-16 14:32:39+00",4.3,5.3,,61.2,104,-142,-24,1025.62,63.9,0
"2021-05-16 14:37:39+00",6.4,7.4,,61.3,174,-214,14,1025.66,63.8,0
"2021-05-16 14:42:39+00",6.6,7.6,,61.2,191,-207,15,1025.72,63.8,0
"2021-05-16 14:47:39+00",7.7,8.7,,61.1,237,-245,12,1025.72,63.5,0
"2021-05-16 14:52:39+00",6.7,8.7,,61.1,88,-272,9,1025.79,63.1,0
"2021-05-16 14:57:39+00",8.6,9.6,,60.6,147,-342,-9,1025.73,62.4,0
"2021-05-16 15:02:39+00",9.5,11.5,,60,159,-375,-20,1025.72,62,0
"2021-05-16 15:07:39+00",9.2,10.2,,59.8,118,-373,-27,1025.68,62,0
"2021-05-16 15:12:39+00",6.0,7.0,,60.8,49,-251,-23,1025.6,62.7,0
"2021-05-16 15:17:39+00",5.8,6.8,,60.8,116,-218,-13,1025.42,62.8,0
"2021-05-16 15:22:39+00",5.9,7.9,,61.9,32,-249,-14,1025.39,63.4,0
"2021-05-16 15:27:39+00",7.1,8.1,,61.8,63,-291,-25,1025.4,63.6,0
"2021-05-16 15:32:39+00",5.9,7.9,,62.6,-48,-236,18,1025.43,64.2,0
"2021-05-16 15:37:39+00",6.5,7.5,,62.3,67,-276,-3,1025.41,64,0
"2021-05-16 15:42:39+00",7.3,9.3,,62.2,86,-286,-3,1025.48,64,0
"2021-05-16 15:47:39+00",10.5,11.5,,61.8,145,-414,-14,1025.51,63.7,0
"2021-05-16 15:52:39+00",10.0,12.0,,61.7,101,-405,14,1025.47,63.5,0
"2021-05-16 15:57:39+00",9.5,13.5,,61.8,68,-404,18,1025.45,63.5,0
"2021-05-16 16:02:39+00",12.7,14.7,,61.2,188,-518,-10,1025.43,63.1,0
"2021-05-16 16:07:39+00",10.0,13.0,,61.1,83,-413,10,1025.33,62.6,0
"2021-05-16 16:12:39+00",6.2,10.2,,61.7,14,-252,27,1025.27,63,0
"2021-05-16 16:17:39+00",11.3,13.3,,62,68,-483,-26,1025.22,63.1,0
"2021-05-16 16:22:39+00",6.4,8.4,,62.1,-24,-266,29,1025.12,63.1,0
"2021-05-16 16:27:39+00",8.3,10.3,,62.6,78,-349,22,1025,63.7,0
"2021-05-16 16:32:39+00",6.1,8.1,,62.7,-35,-251,19,1024.94,63.9,0
"2021-05-16 16:37:39+00",9.6,11.6,,62.4,61,-405,3,1024.88,63.9,0
"2021-05-16 16:42:39+00",6.9,10.9,,62.8,18,-292,14,1024.8,64.2,0
"2021-05-16 16:47:39+00",7.7,9.7,,63.7,-3,-301,13,1024.77,65.2,0
"2021-05-16 16:52:39+00",11.0,13.0,,63.5,93,-465,-20,1024.72,65.4,0
"2021-05-16 16:57:39+00",10.0,13.0,,64,93,-404,4,1024.65,65.6,0
"2021-05-16 17:02:39+00",10.4,14.4,,62.8,88,-438,12,1024.69,64.9,0
"2021-05-16 17:07:39+00",12.6,15.6,,62.3,119,-529,-18,1024.69,64.1,0
"2021-05-16 17:12:39+00",8.8,11.8,,62.3,45,-356,4,1024.71,63.7,0
"2021-05-16 17:17:39+00",8.9,10.9,,62.6,81,-354,3,1024.71,63.9,0
"2021-05-16 17:22:39+00",8.4,10.4,,63.3,-10,-355,-4,1024.69,64.6,0
"2021-05-16 17:27:39+00",9.8,13.8,,64,60,-388,17,1024.74,65.2,0
"2021-05-16 17:32:39+00",11.0,14.0,,63,51,-437,-4,1024.56,64.3,0
"2021-05-16 17:37:39+00",10.7,12.7,,63.6,14,-449,-22,1024.49,64.7,0
"2021-05-16 17:42:39+00",10.4,13.4,,64.1,-59,-451,-6,1024.52,65.2,0
"2021-05-16 17:47:39+00",12.4,15.4,,63.7,93,-516,0,1024.42,65.1,0
"2021-05-16 17:52:39+00",10.5,13.5,,64.2,-8,-444,-26,1024.39,65.4,0
"2021-05-16 17:57:39+00",9.2,14.2,,65,-18,-389,18,1024.35,66.1,0
"2021-05-16 18:02:39+00",9.4,12.4,,65.1,-31,-416,-14,1024.2,66.3,0
"2021-05-16 18:07:39+00",8.6,11.6,,65.6,-7,-360,-9,1024.21,66.8,0
"2021-05-16 18:12:39+00",10.5,13.5,,65.6,-72,-456,4,1024.19,67.1,0
"2021-05-16 18:17:39+00",8.9,12.9,,65.9,-63,-363,21,1024.18,67.1,0
"2021-05-16 18:22:39+00",11.0,15.0,,65.2,-7,-463,-20,1024.09,66.5,0
"2021-05-16 18:27:39+00",11.8,14.8,,65.5,-97,-489,-16,1024.09,67,0
"2021-05-16 18:32:39+00",8.2,11.2,,66,-12,-336,16,1024.12,67.6,0
"2021-05-16 18:37:39+00",12.4,15.4,,65.3,67,-522,-17,1024.15,67,0
"2021-05-16 18:42:39+00",9.6,12.6,,65.4,-30,-402,30,1024.19,66.9,0
"2021-05-16 18:47:39+00",12.2,16.2,,66.3,-69,-553,-30,1024.11,67.8,0
"2021-05-16 18:52:39+00",11.8,15.8,,66.4,-28,-482,-9,1024.07,68.3,0
"2021-05-16 18:57:39+00",10.0,14.0,,66.2,-61,-421,-13,1023.94,67.8,0
"2021-05-16 19:02:39+00",10.6,15.6,,67,-32,-444,20,1023.89,68.6,0
"2021-05-16 19:07:39+00",11.5,15.5,,66.9,99,-499,-5,1023.91,68.5,0
"2021-05-16 19:12:39+00",10.2,13.2,,66.5,25,-414,-4,1023.77,68.3,0
"2021-05-16 19:17:39+00",12.5,16.5,,66.9,-79,-517,-20,1023.75,68.4,0
"2021-05-16 19:22:39+00",13.0,16.0,,66.4,87,-534,-19,1023.74,67.8,0
"2021-05-16 19:27:39+00",12.4,16.4,,66.1,12,-518,-19,1023.71,67.3,0
"2021-05-16 19:32:39+00",10.0,15.0,,66.4,-100,-425,58,1023.75,67.4,0
"2021-05-16 19:37:39+00",13.3,16.3,,65.6,77,-573,-27,1023.59,66.9,0
"2021-05-16 19:42:39+00",9.7,13.7,,65.3,66,-418,-23,1023.59,66.8,0
"2021-05-16 19:47:39+00",11.8,14.8,,65,81,-531,-24,1023.55,66.4,0
"2021-05-16 19:52:39+00",9.9,12.9,,65.1,-16,-417,-4,1023.52,66.5,0
"2021-05-16 19:57:39+00",11.3,14.3,,65.2,-10,-459,-4,1023.46,66.5,0
"2021-05-16 20:02:39+00",11.3,14.3,,65.8,-76,-485,-7,1023.44,67,0
"2021-05-16 20:07:39+00",10.3,13.3,,66.7,-98,-422,26,1023.41,68,0
"2021-05-16 20:12:39+00",11.6,15.6,,66.4,110,-491,-11,1023.38,68.2,0
"2021-05-16 20:17:39+00",12.0,16.0,,65.7,98,-489,8,1023.22,67.7,0
"2021-05-16 20:22:39+00",11.5,16.5,,66.3,-1,-484,-47,1023.25,68,0
"2021-05-16 20:27:39+00",13.0,17.0,,66.1,81,-553,-13,1023.2,67.7,0
"2021-05-16 20:32:39+00",13.9,15.9,,64.4,75,-588,-15,1023.25,65.8,0
"2021-05-16 20:37:39+00",10.8,13.8,,64.2,-1,-460,-22,1023.34,65.2,0
"2021-05-16 20:42:39+00",11.1,13.1,,64.2,4,-469,-42,1023.35,64.9,0
"2021-05-16 20:47:39+00",11.0,16.0,,64.8,-93,-471,-5,1023.47,65.5,0
"2021-05-16 20:52:39+00",13.3,17.3,,64.4,22,-586,-18,1023.45,65.5,0
"2021-05-16 20:57:39+00",13.1,17.1,,63.1,-62,-550,-10,1023.45,64.3,0
"2021-05-16 21:02:39+00",10.5,13.5,,63.1,-5,-451,-16,1023.49,63.9,0
"2021-05-16 21:07:39+00",11.7,13.7,,62.7,-22,-498,-28,1023.55,63.5,0
"2021-05-16 21:12:39+00",8.9,11.9,,62.6,-44,-367,-9,1023.55,63.2,0
"2021-05-16 21:17:39+00",8.9,11.9,,62.8,-16,-370,-7,1023.55,63.4,0
"2021-05-16 21:22:39+00",10.3,14.3,,62.6,-43,-423,2,1023.51,63.2,0
"2021-05-16 21:27:39+00",10.6,14.6,,62.7,-93,-414,7,1023.42,63.2,0
"2021-05-16 21:32:39+00",9.9,12.9,,62.6,-66,-436,-16,1023.55,63.2,0
"2021-05-16 21:37:39+00",7.4,10.4,,62.7,-32,-281,40,1023.64,63.2,0
"2021-05-16 21:42:39+00",11.4,13.4,,63,-114,-512,-8,1023.49,63.5,0
"2021-05-16 21:47:39+00",10.9,14.9,,63.1,-94,-479,7,1023.52,63.6,0
"2021-05-16 21:52:39+00",11.4,14.4,,63.3,-114,-464,18,1023.57,63.7,0
"2021-05-16 21:57:39+00",10.1,13.1,,63,-63,-427,0,1023.62,63.5,0
"2021-05-16 22:02:39+00",12.2,14.2,,62.7,-128,-516,-10,1023.63,63.2,0
"2021-05-16 22:07:39+00",10.9,13.9,,62.5,-79,-469,-10,1023.69,62.9,0
"2021-05-16 22:12:39+00",12.7,14.7,,62,-66,-525,-12,1023.62,62.6,0
"2021-05-16 22:17:39+00",10.1,12.1,,61.9,-96,-428,5,1023.61,62.3,0
"2021-05-16 22:22:39+00",8.6,11.6,,61.9,-84,-346,6,1023.73,62.2,0
"2021-05-16 22:27:39+00",9.4,12.4,,61.8,-103,-383,10,1023.7,62.1,0
"2021-05-16 22:32:39+00",8.3,11.3,,61.9,-88,-330,21,1023.76,62.2,0
"2021-05-16 22:37:39+00",8.0,11.0,,61.8,-78,-323,17,1023.68,62.2,0
"2021-05-16 22:42:39+00",8.4,10.4,,61.8,-55,-352,2,1023.62,62.1,0
"2021-05-16 22:47:39+00",7.0,10.0,,61.8,-10,-293,3,1023.67,62.1,0
"2021-05-16 22:52:39+00",11.6,14.6,,61.7,-84,-479,-21,1023.75,61.9,0
"2021-05-16 22:57:39+00",13.0,16.0,,61.4,-185,-539,1,1023.8,61.7,0
"2021-05-16 23:02:39+00",9.0,11.0,,61.2,-27,-375,-27,1023.87,61.5,0
"2021-05-16 23:07:39+00",8.8,11.8,,61,-58,-356,-8,1023.89,61.3,0
"2021-05-16 23:12:39+00",10.3,12.3,,60.9,-93,-425,5,1023.85,61.1,0
"2021-05-16 23:17:39+00",6.2,8.2,,60.9,-43,-251,8,1023.8,61,0
"2021-05-16 23:22:39+00",8.8,10.8,,60.8,-69,-371,5,1023.86,61,0
"2021-05-16 23:27:39+00",9.5,11.5,,60.8,-64,-409,-5,1023.86,60.9,0
"2021-05-16 23:32:39+00",6.5,9.5,,60.8,-60,-285,13,1023.93,60.8,0
"2021-05-16 23:37:39+00",7.0,9.0,,60.8,-52,-285,9,1023.95,60.8,0
"2021-05-16 23:42:39+00",8.0,10.0,,60.7,-73,-341,-21,1023.95,60.6,0
"2021-05-16 23:47:39+00",11.6,12.6,,60.7,-175,-478,2,1023.95,60.5,0
"2021-05-16 23:52:39+00",10.2,14.2,,60.7,-78,-435,-5,1023.94,60.5,0
"2021-05-16 23:57:39+00",10.3,12.3,,60.6,-114,-440,3,1023.96,60.3,0
